FW7336 Weather Reports


time (UTC)temp
C
wind
direction
speed
KPH
gust
KPH
rain 1hr
cm
rain 24hr
cm
rain mn
cm
humidity
%
barometer
mb
20260502130105 17 313 4.8 16.1 0.00 0.00 0.00 58 1015.9
20260502123102 17 220 0.0 12.9 0.00 0.00 0.00 64 1016.2
20260502121558 16 198 9.7 14.5 0.00 0.00 0.00 66 1016.4
20260502114555 15 273 6.4 14.5 0.00 0.00 0.00 68 1016.8
20260502113100 16 243 4.8 32.2 0.00 0.00 0.00 69 1017.3
20260502111558 16 247 8.0 16.1 0.00 0.00 0.00 69 1017.4
20260502110105 16 222 8.0 16.1 0.00 0.00 0.00 70 1017.3
20260502104603 15 267 9.7 27.4 0.00 0.00 0.00 71 1017.4
20260502103102 15 216 8.0 19.3 0.00 0.00 0.00 70 1017.4
20260502101607 15 214 4.8 16.1 0.00 0.00 0.00 74 1017.5
20260502100109 14 200 9.7 19.3 0.00 0.00 0.00 73 1017.6
20260502070059 10 252 4.8 11.3 0.00 0.00 0.00 89 1018.2
20260502064557 10 283 6.4 11.3 0.00 0.00 0.00 90 1018.2
20260502063058 10 260 6.4 11.3 0.00 0.00 0.00 92 1018.2
20260502061554 10 259 3.2 11.3 0.00 0.00 0.00 92 1018.3
20260502060101 10 275 3.2 11.3 0.00 0.00 0.00 92 1018.2
20260502054556 10 257 4.8 14.5 0.00 0.00 0.00 92 1018.2
20260502053057 10 261 6.4 11.3 0.00 0.00 0.00 92 1018.1
20260502051553 10 240 1.6 6.4 0.00 0.00 0.00 92 1018.0
20260502050054 10 264 6.4 11.3 0.00 0.00 0.00 92 1018.0
20260502044555 10 250 1.6 6.4 0.00 0.00 0.00 92 1018.0
20260502043106 10 271 4.8 9.7 0.00 0.00 0.00 93 1017.9
20260502041554 10 212 4.8 9.7 0.00 0.00 0.00 93 1017.9
20260502040057 10 253 3.2 6.4 0.00 0.00 0.00 92 1018.0
20260502034553 11 251 3.2 6.4 0.00 0.00 0.00 92 1018.1
20260502033055 11 264 0.0 8.0 0.00 0.00 0.00 92 1018.0
20260502031559 11 266 3.2 8.0 0.00 0.00 0.00 91 1018.3
20260502030053 11 247 6.4 11.3 0.00 0.00 0.00 91 1018.1
20260502024554 11 249 3.2 11.3 0.00 0.00 0.00 90 1018.2
20260502023053 12 283 4.8 12.9 0.00 0.00 0.00 90 1018.2
20260502021554 12 241 6.4 9.7 0.00 0.00 0.00 89 1018.4
20260502020054 12 263 6.4 12.9 0.00 0.00 0.00 88 1018.5
20260502014559 12 252 9.7 14.5 0.00 0.00 0.00 88 1018.6
20260502013057 13 271 8.0 12.9 0.00 0.00 0.00 88 1018.7
20260502011553 13 252 4.8 14.5 0.00 0.00 0.00 88 1018.8
20260502010058 13 275 4.8 11.3 0.00 0.00 0.00 88 1018.9
20260502004600 13 226 3.2 9.7 0.00 0.00 0.00 88 1019.0
20260502003053 13 269 4.8 9.7 0.00 0.00 0.00 88 1019.0
20260502001555 13 276 3.2 9.7 0.00 0.00 0.00 88 1019.1
20260502000106 13 271 8.0 12.9 0.00 0.00 0.00 88 1019.1
20260501234554 12 268 4.8 9.7 0.00 0.00 0.00 88 1019.2
20260501233102 12 270 3.2 8.0 0.00 0.00 0.00 88 1019.3
20260501231558 12 259 6.4 9.7 0.00 0.00 0.00 88 1019.2
20260501230109 13 223 4.8 11.3 0.00 0.00 0.00 88 1019.3
20260501224601 13 262 4.8 9.7 0.00 0.00 0.00 88 1019.3
20260501223103 13 269 4.8 9.7 0.00 0.00 0.00 87 1019.4
20260501221602 13 248 4.8 9.7 0.00 0.00 0.00 86 1019.2
20260501214609 14 0 1.6 6.4 0.00 0.00 0.00 83 1019.1
20260501213105 14 264 4.8 9.7 0.00 0.00 0.00 82 1019.1
20260501211556 15 270 3.2 14.5 0.00 0.00 0.00 80 1019.1
20260501210054 15 266 6.4 11.3 0.00 0.00 0.00 79 1018.9
20260501204601 15 276 3.2 9.7 0.00 0.00 0.00 77 1019.0
20260501203056 16 271 3.2 11.3 0.00 0.00 0.00 76 1018.9
20260501201611 16 245 8.0 19.3 0.00 0.00 0.00 73 1018.8
20260501200053 16 267 12.9 20.9 0.00 0.00 0.00 71 1018.7
20260501194554 16 259 12.9 19.3 0.00 0.00 0.00 69 1018.7
20260501193101 17 276 12.9 19.3 0.00 0.00 0.00 68 1018.7
20260501191557 17 241 17.7 30.6 0.00 0.00 0.00 68 1018.5
20260501190055 17 232 12.9 25.7 0.00 0.00 0.00 67 1018.4
20260501184556 19 269 11.3 22.5 0.00 0.00 0.00 64 1018.3
20260501183058 20 275 12.9 24.1 0.00 0.00 0.00 63 1017.9
20260501181554 22 293 22.5 27.4 0.00 0.00 0.00 57 1017.7
20260501180058 23 222 4.8 14.5 0.00 0.00 0.00 51 1017.4
20260501174558 23 214 4.8 14.5 0.00 0.00 0.00 49 1017.4
20260501173056 23 165 8.0 17.7 0.00 0.00 0.00 48 1017.4
20260501171556 23 199 8.0 22.5 0.00 0.00 0.00 48 1017.5
20260501170057 23 169 9.7 17.7 0.00 0.00 0.00 48 1017.6
20260501164600 23 179 11.3 16.1 0.00 0.00 0.00 47 1017.7
20260501163058 23 208 12.9 17.7 0.00 0.00 0.00 47 1017.7
20260501161600 23 221 9.7 17.7 0.00 0.00 0.00 46 1017.8
20260501154600 23 119 8.0 20.9 0.00 0.00 0.00 47 1018.0
20260501153108 23 138 11.3 17.7 0.00 0.00 0.00 47 1018.3
20260501151601 23 191 12.9 25.7 0.00 0.00 0.00 46 1018.5
20260501150100 23 12.9 20.9 0.00 0.00 0.00 47 1018.5